Simultaneous Nadir Overpasses (SNOs) Predictions

Prediction of SNOs between NOAA-20 and AQUA Satellite Orbit:

Table of predicted SNOs for the next 14.0 days since TLE Epoch: 1/26/2018
Index Date (NOAA-20) Time (NOAA-20) Lat,Lon (NOAA-20) SZA (NOAA-20 ) Date (AQUA) Time (AQUA) Lat,Lon (AQUA) SZA (AQUA ) Distance(km) Time Diff (sec)
1 01/28/2018 22:12:58 -76.21, -93.61 64.75 01/28/2018 22:13:40 -76.22, -93.54 64.81 2.30 42
2 01/28/2018 23:03:14 77.44, 78.62 113.70 01/28/2018 23:02:40 77.44, 78.51 113.76 2.87 34
3 01/31/2018 14:29:38 -76.84, 24.52 66.22 01/31/2018 14:29:57 -76.83, 24.44 66.22 1.97 19
4 01/31/2018 15:20:04 77.62,-164.81 112.78 01/31/2018 15:19:06 77.61,-164.89 112.84 1.97 58
5 02/03/2018 05:56:05 76.04, -29.97 114.04 02/03/2018 05:57:17 76.04, -29.99 113.98 0.45 72
6 02/03/2018 06:46:28 -77.06, 141.19 67.24 02/03/2018 06:46:23 -77.06, 141.16 67.23 0.92 5
7 02/05/2018 22:12:52 76.41, 87.10 112.82 02/05/2018 22:13:40 76.41, 87.09 112.78 0.19 48
8 02/05/2018 23:03:17 -77.33,-101.91 68.35 02/05/2018 23:02:48 -77.33,-101.93 68.32 0.45 29
9 02/08/2018 14:29:39 76.77,-155.77 111.56 02/08/2018 14:30:03 76.77,-155.79 111.55 0.52 24




NCC Satellite Simultaneous Nadir Overpasses (SNOs) Prediction Service
